This demonstration page uses our WeatherBlox Daily Observations layout. Learn more.

Left ArrowRight Arrow

Hourly Observations for January 11, 2020

Temp ( °F °C ) Dew Point ( °F °C ) Humidity (%) Winds ( mph kmh ) Pressure ( in mb ) Visibility ( mi km ) Precip ( " mm )
12:53 am 00:53 Cloudy 56 13.3 52 11.1 87 87 VRB 3 6 29.99 1016 10 16 0.00 0.00
1:53 am 01:53 Cloudy 57 13.9 52 11.1 83 83 SSE 8 13 29.95 1014 10 16 0.00 0.00
2:53 am 02:53 Mostly Cloudy with Light Rain 57 13.9 52 11.1 83 83 undefined N/A 29.91 1013 10 16 0.00 0.00
3:53 am 03:53 Mostly Cloudy 58 14.4 52 11.1 81 81 VRB 5 7 29.90 1013 10 16 0.00 0.00
4:53 am 04:53 Cloudy 59 15 52 11.1 78 78 VRB 7 11 29.87 1012 10 16 0.00 0.00
5:53 am 05:53 Cloudy with Light Rain 58 14.4 54 12.2 87 87 SSE 6 9 29.84 1010 10 16 0.02 0.51
6:53 am 06:53 Cloudy 60 15.6 53 11.7 78 78 SSE 9 15 29.82 1010 10 16 0.00 0.00
7:53 am 07:53 Cloudy 62 16.7 53 11.7 73 73 S 8 13 29.79 1009 10 16 0.00 0.00
8:53 am 08:53 Partly Cloudy with Light Rain 62 16.7 54 12.2 75 75 SSE 8 13 29.75 1007 9 14 0.00 0.00
9:53 am 09:53 Cloudy 65 18.3 54 12.2 68 68 SSE 14 22 29.75 1007 10 16 0.00 0.00
10:53 am 10:53 Cloudy with Light Rain 65 18.3 55 12.8 70 70 VRB 7 11 29.75 1008 9 14 0.00 0.00
11:53 am 11:53 Cloudy with Light Rain 67 19.4 59 15 76 76 S 10 17 29.69 1005 7 11 0.01 0.25
12:53 pm 12:53 Cloudy with Light Rain 65 18.3 61 16.1 87 87 WSW 10 17 29.72 1007 10 16 0.03 0.76
1:53 pm 13:53 Cloudy with Light Rain 63 17.2 58 14.4 84 84 SW 9 15 29.73 1007 6 10 0.02 0.51
2:53 pm 14:53 Cloudy with Light Rain 62 16.7 58 14.4 86 86 VRB 6 9 29.71 1006 10 16 0.03 0.76
3:53 pm 15:53 Mostly Cloudy 62 16.7 57 13.9 84 84 undefined N/A 29.72 1007 10 16 0.02 0.51
4:53 pm 16:53 Cloudy with Rain 61 16.1 57 13.9 87 87 VRB 7 11 29.70 1006 4 6 0.04 1.02
5:53 pm 17:53 Cloudy with Light Rain 60 15.6 58 14.4 93 93 VRB 7 11 29.65 1004 10 16 0.09 2.29
6:18 pm 18:18 Cloudy 60 15.6 57 13.9 90 90 VRB 7 11 29.66 1004 10 16 0.01 0.25
6:35 pm 18:35 Cloudy 60 15.6 57 13.9 90 90 VRB 6 9 29.66 1004 10 16 0.01 0.25
6:53 pm 18:53 Cloudy 60 15.6 57 13.9 90 90 VRB 5 7 29.65 1004 10 16 0.01 0.25
7:53 pm 19:53 Cloudy with Light Rain 60 15.6 58 14.4 93 93 Calm 29.62 1003 4 6 0.01 0.25
8:53 pm 20:53 Cloudy 60 15.6 58 14.4 93 93 VRB 7 11 29.60 1002 10 16 0.01 0.25
9:08 pm 21:08 Cloudy 61 16.1 58 14.4 90 90 S 8 13 29.59 1002 10 16 0.00 0.00
9:48 pm 21:48 Cloudy with Light Rain 55 13 52 11 88 88 W 21 33 29.67 1005 3 4 0.02 0.51
9:53 pm 21:53 Cloudy with Light Rain 54 12.2 51 10.6 90 90 W 22 35 29.66 1004 5 8 0.03 0.76
10:00 pm 22:00 Cloudy with Rain 53 11.7 50 10 89 89 W 15 24 29.67 1005 5 8 0.02 0.51
10:53 pm 22:53 Cloudy 51 10.6 49 9.4 92 92 WSW 13 20 29.70 1006 10 16 0.04 1.02
11:49 pm 23:49 Cloudy with Light Rain 46 8 45 7 93 93 W 21 33 29.85 1011 3 5 0.00 0.00
11:53 pm 23:53 Cloudy with Light Rain 46 7.8 44 6.7 93 93 W 18 30 29.85 1011 3 5 0.00 0.00

Powered by AerisWeather